LANDSAT 7

导读

LANDSAT 7是美国于1999年4月15日发射的陆地卫星,属于NASA陆地卫星系列的延续,延续了对地观测的长期任务。它搭载增强型专题制图仪,可获取多光谱、全色遥感影像,广泛应用于土地覆盖变化监测、自然资源调查、环境变化研究等领域,为全球地表观测提供了连续可靠的数据支撑。

基本信息
目录编号:
25682
目录名称:
LANDSAT 7
国际标识:
1999-020A
轨道中心:
EARTH
卫星名称:
LANDSAT 7
卫星全名:
--
卫星状态:
在轨 (已飞行10011 天)
发射日期:
1999-04-15 UTC
国别 :
美国 (US)
星等 :
--
轨道信息
数据来源 国际轨道数据
星历时间: 2026-09-11T00:27:32+0800
8小时前
查看轨道信息
半长轴: 7058.496km
偏心率: 0.0001491
轨道倾角: 97.864°
近地点辐角 102.013°
升交点赤经 253.426°
平近点角 347.387°
近地点: 679.306km
远地点: 681.412km
周期: 98.362分钟
每日圈数: 14.63978
详细信息
使用方式:
暂无
2D轨道图
3D轨道图
轨道高度分析图
轨道倾角分析图
轨道综合分析图
查看轨道综合分析图
与全量物体交会距离演化趋势
与全量物体交会风险概率演化趋势